Location: Bemmer
(51.5498°N, 5.6249°E)
Time: 14:02:31
(UTC+00:00)

GP-B - Pass Details

Date: 03 March 2021
Orbit: 631 x 634 km, 89.8° (Epoch: 11 April)

Event Time Altitude Azimuth Distance (km) Brightness Sun altitude
Rises 19:22:58 0° 192° (SSW) 2,921 6.5 -19.5°
Reaches altitude 10° 19:25:14 10° 197° (SSW) 2,018 5.7 -19.9°
Maximum altitude 19:29:33 50° 273° (W) 815 4.0 -20.5°
Drops below altitude 10° 19:33:55 10° 350° (N) 2,034 6.0 -21.2°
Sets 19:36:13 0° 355° (N) 2,948 6.8 -21.5°
